| time (UTC) | temp C | wind direction | speed KPH | gust KPH | rain 1hr cm | rain 24hr cm | rain mn cm | humidity % | barometer mb |
| 20260503025531 | 15 | 304 | 1.6 | 4.8 | 0.00 | 0.00 | 0.00 | 87 | 1011.5 |
| 20260503025033 | 15 | 285 | 1.6 | 6.4 | 0.00 | 0.00 | 0.00 | 87 | 1011.4 |
| 20260503024551 | 15 | 0 | 0.0 | 8.0 | 0.00 | 0.00 | 0.00 | 86 | 1011.4 |
| 20260503024031 | 15 | 262 | 1.6 | 8.0 | 0.00 | 0.00 | 0.00 | 86 | 1011.4 |
| 20260503023532 | 15 | 294 | 1.6 | 8.0 | 0.00 | 0.00 | 0.00 | 86 | 1011.4 |
| 20260503023051 | 15 | 284 | 1.6 | 6.4 | 0.00 | 0.00 | 0.00 | 86 | 1011.4 |
| 20260503022534 | 16 | 302 | 1.6 | 8.0 | 0.00 | 0.00 | 0.00 | 86 | 1011.5 |
| 20260503022038 | 16 | 300 | 3.2 | 9.7 | 0.00 | 0.00 | 0.00 | 86 | 1011.4 |
| 20260503021547 | 16 | 279 | 3.2 | 9.7 | 0.00 | 0.00 | 0.00 | 86 | 1011.4 |
| 20260503021034 | 16 | 305 | 1.6 | 8.0 | 0.00 | 0.00 | 0.00 | 86 | 1011.3 |
| 20260503020535 | 16 | 322 | 3.2 | 8.0 | 0.00 | 0.00 | 0.00 | 86 | 1011.3 |
| 20260503020047 | 16 | 308 | 3.2 | 6.4 | 0.00 | 0.00 | 0.00 | 86 | 1011.3 |
| 20260503015535 | 16 | 273 | 1.6 | 6.4 | 0.00 | 0.00 | 0.00 | 86 | 1011.3 |
| 20260503015035 | 16 | 251 | 1.6 | 6.4 | 0.00 | 0.00 | 0.00 | 86 | 1011.4 |
| 20260503014549 | 16 | 268 | 1.6 | 6.4 | 0.00 | 0.00 | 0.00 | 85 | 1011.3 |
| 20260503014037 | 16 | 289 | 1.6 | 11.3 | 0.00 | 0.00 | 0.00 | 85 | 1011.3 |
| 20260503013535 | 16 | 278 | 3.2 | 11.3 | 0.00 | 0.00 | 0.00 | 85 | 1011.4 |
| 20260503013048 | 16 | 306 | 3.2 | 11.3 | 0.00 | 0.00 | 0.00 | 85 | 1011.3 |
| 20260503012535 | 16 | 281 | 4.8 | 11.3 | 0.00 | 0.00 | 0.00 | 85 | 1011.3 |
| 20260503012038 | 16 | 281 | 3.2 | 11.3 | 0.00 | 0.00 | 0.00 | 85 | 1011.2 |
| 20260503011543 | 16 | 341 | 1.6 | 8.0 | 0.00 | 0.00 | 0.00 | 85 | 1011.2 |
| 20260503011035 | 16 | 311 | 1.6 | 9.7 | 0.00 | 0.00 | 0.00 | 85 | 1011.0 |
| 20260503010532 | 16 | 338 | 3.2 | 9.7 | 0.00 | 0.00 | 0.00 | 85 | 1011.2 |
| 20260503010045 | 16 | 275 | 1.6 | 12.9 | 0.00 | 0.00 | 0.00 | 85 | 1011.2 |
| 20260503005532 | 16 | 254 | 1.6 | 12.9 | 0.00 | 0.00 | 0.00 | 85 | 1011.2 |
| 20260503005040 | 16 | 309 | 4.8 | 12.9 | 0.00 | 0.00 | 0.00 | 85 | 1011.0 |
| 20260503004547 | 16 | 306 | 1.6 | 11.3 | 0.00 | 0.00 | 0.00 | 84 | 1011.1 |
| 20260503004035 | 16 | 337 | 4.8 | 11.3 | 0.00 | 0.00 | 0.00 | 85 | 1011.1 |
| 20260503003535 | 16 | 313 | 1.6 | 9.7 | 0.00 | 0.00 | 0.00 | 85 | 1011.2 |
| 20260503003102 | 16 | 304 | 1.6 | 9.7 | 0.00 | 0.00 | 0.00 | 84 | 1011.3 |
| 20260503002535 | 17 | 319 | 4.8 | 12.9 | 0.00 | 0.00 | 0.00 | 84 | 1011.3 |
| 20260503002033 | 17 | 281 | 4.8 | 12.9 | 0.00 | 0.00 | 0.00 | 84 | 1011.3 |
| 20260503001545 | 17 | 250 | 4.8 | 11.3 | 0.00 | 0.00 | 0.00 | 84 | 1011.4 |
| 20260503001031 | 17 | 288 | 3.2 | 11.3 | 0.00 | 0.00 | 0.00 | 84 | 1011.3 |
| 20260503000535 | 17 | 317 | 4.8 | 9.7 | 0.00 | 0.00 | 0.00 | 84 | 1011.3 |
| 20260503000045 | 17 | 315 | 3.2 | 8.0 | 0.00 | 0.00 | 0.00 | 84 | 1011.3 |
| 20260502235534 | 17 | 340 | 1.6 | 9.7 | 0.00 | 0.00 | 0.00 | 84 | 1011.2 |
| 20260502235035 | 17 | 252 | 4.8 | 14.5 | 0.00 | 0.00 | 0.00 | 84 | 1011.2 |
| 20260502234543 | 17 | 315 | 3.2 | 16.1 | 0.00 | 0.00 | 0.00 | 84 | 1011.4 |
| 20260502234037 | 17 | 286 | 4.8 | 16.1 | 0.00 | 0.00 | 0.00 | 84 | 1011.5 |
| 20260502233535 | 17 | 279 | 6.4 | 16.1 | 0.00 | 0.00 | 0.00 | 84 | 1011.4 |
| 20260502233048 | 17 | 332 | 6.4 | 12.9 | 0.00 | 0.00 | 0.00 | 84 | 1011.4 |
| 20260502232535 | 17 | 300 | 3.2 | 12.9 | 0.00 | 0.00 | 0.00 | 84 | 1011.3 |
| 20260502232032 | 17 | 306 | 6.4 | 12.9 | 0.00 | 0.00 | 0.00 | 84 | 1011.3 |
| 20260502231605 | 17 | 323 | 3.2 | 12.9 | 0.00 | 0.00 | 0.00 | 84 | 1011.4 |
| 20260502231032 | 17 | 308 | 4.8 | 14.5 | 0.00 | 0.00 | 0.00 | 84 | 1011.4 |
| 20260502230534 | 17 | 249 | 6.4 | 14.5 | 0.00 | 0.00 | 0.00 | 84 | 1011.4 |
| 20260502230055 | 17 | 298 | 6.4 | 14.5 | 0.00 | 0.00 | 0.00 | 84 | 1011.5 |
| 20260502225535 | 17 | 294 | 8.0 | 16.1 | 0.00 | 0.00 | 0.00 | 84 | 1011.6 |
| 20260502225035 | 17 | 319 | 8.0 | 16.1 | 0.00 | 0.00 | 0.00 | 84 | 1011.6 |
| 20260502224552 | 17 | 298 | 6.4 | 14.5 | 0.00 | 0.00 | 0.00 | 84 | 1011.7 |
| 20260502224033 | 17 | 246 | 8.0 | 14.5 | 0.00 | 0.00 | 0.00 | 84 | 1011.8 |
| 20260502223535 | 17 | 270 | 6.4 | 16.1 | 0.00 | 0.00 | 0.00 | 84 | 1012.0 |
| 20260502223049 | 17 | 286 | 9.7 | 17.7 | 0.00 | 0.00 | 0.00 | 83 | 1012.0 |
| 20260502222532 | 17 | 226 | 8.0 | 17.7 | 0.00 | 0.00 | 0.00 | 83 | 1012.1 |
| 20260502222035 | 17 | 5 | 8.0 | 19.3 | 0.00 | 0.00 | 0.00 | 83 | 1012.2 |
| 20260502221548 | 17 | 272 | 9.7 | 19.3 | 0.00 | 0.00 | 0.00 | 82 | 1012.3 |
| 20260502221035 | 17 | 294 | 6.4 | 16.1 | 0.00 | 0.00 | 0.00 | 82 | 1012.4 |
| 20260502220536 | 18 | 255 | 9.7 | 16.1 | 0.00 | 0.00 | 0.00 | 82 | 1012.3 |
| 20260502220057 | 18 | 234 | 9.7 | 19.3 | 0.00 | 0.00 | 0.00 | 81 | 1012.4 |
| 20260502215535 | 18 | 9 | 8.0 | 19.3 | 0.00 | 0.00 | 0.00 | 81 | 1012.4 |
| 20260502215034 | 18 | 255 | 8.0 | 17.7 | 0.00 | 0.00 | 0.00 | 81 | 1012.4 |
| 20260502214551 | 18 | 248 | 6.4 | 16.1 | 0.00 | 0.00 | 0.00 | 80 | 1012.4 |
| 20260502214032 | 18 | 304 | 6.4 | 20.9 | 0.00 | 0.00 | 0.00 | 81 | 1012.5 |
| 20260502213531 | 18 | 309 | 9.7 | 20.9 | 0.00 | 0.00 | 0.00 | 80 | 1012.6 |
| 20260502213046 | 18 | 289 | 9.7 | 19.3 | 0.00 | 0.00 | 0.00 | 81 | 1012.7 |
| 20260502212535 | 19 | 270 | 11.3 | 20.9 | 0.00 | 0.00 | 0.00 | 81 | 1012.7 |
| 20260502212035 | 18 | 318 | 11.3 | 20.9 | 0.00 | 0.00 | 0.00 | 82 | 1012.8 |
| 20260502211548 | 18 | 329 | 9.7 | 20.9 | 0.00 | 0.00 | 0.00 | 82 | 1012.9 |
| 20260502211035 | 18 | 264 | 9.7 | 19.3 | 0.00 | 0.00 | 0.00 | 82 | 1012.6 |
| 20260502210534 | 18 | 263 | 9.7 | 19.3 | 0.00 | 0.00 | 0.00 | 83 | 1012.6 |
| 20260502210101 | 18 | 315 | 9.7 | 17.7 | 0.00 | 0.00 | 0.00 | 83 | 1012.8 |
| 20260502205534 | 18 | 292 | 8.0 | 17.7 | 0.00 | 0.00 | 0.00 | 83 | 1012.8 |
| 20260502205039 | 18 | 21 | 8.0 | 17.7 | 0.00 | 0.00 | 0.00 | 84 | 1012.7 |
| 20260502204548 | 18 | 308 | 6.4 | 12.9 | 0.00 | 0.00 | 0.00 | 84 | 1012.8 |
| 20260502204032 | 18 | 279 | 6.4 | 19.3 | 0.00 | 0.00 | 0.00 | 84 | 1012.8 |
| 20260502203536 | 18 | 302 | 9.7 | 19.3 | 0.00 | 0.00 | 0.00 | 84 | 1013.0 |
| 20260502203052 | 18 | 306 | 9.7 | 17.7 | 0.00 | 0.00 | 0.00 | 83 | 1012.9 |
| 20260502202534 | 18 | 284 | 8.0 | 17.7 | 0.00 | 0.00 | 0.00 | 83 | 1012.9 |
| 20260502202038 | 18 | 302 | 8.0 | 16.1 | 0.00 | 0.00 | 0.00 | 83 | 1012.9 |
| 20260502201552 | 18 | 263 | 4.8 | 12.9 | 0.00 | 0.00 | 0.00 | 84 | 1012.8 |
| 20260502201035 | 18 | 286 | 4.8 | 12.9 | 0.00 | 0.00 | 0.00 | 85 | 1012.8 |
| 20260502200535 | 18 | 295 | 6.4 | 12.9 | 0.00 | 0.00 | 0.00 | 85 | 1012.9 |
| 20260502200126 | 17 | 304 | 3.2 | 14.5 | 0.00 | 0.00 | 0.00 | 86 | 1013.0 |
| 20260502195536 | 17 | 310 | 6.4 | 14.5 | 0.00 | 0.00 | 0.00 | 85 | 1013.2 |
| 20260502195038 | 17 | 308 | 6.4 | 19.3 | 0.00 | 0.00 | 0.00 | 85 | 1013.3 |
| 20260502194542 | 17 | 300 | 6.4 | 19.3 | 0.00 | 0.00 | 0.00 | 85 | 1013.3 |
| 20260502194034 | 17 | 281 | 8.0 | 19.3 | 0.00 | 0.00 | 0.00 | 85 | 1013.4 |
| 20260502193538 | 17 | 314 | 6.4 | 14.5 | 0.00 | 0.00 | 0.00 | 85 | 1013.3 |
| 20260502193050 | 17 | 262 | 4.8 | 14.5 | 0.00 | 0.00 | 0.00 | 85 | 1013.3 |
| 20260502192537 | 17 | 300 | 4.8 | 14.5 | 0.00 | 0.00 | 0.00 | 86 | 1013.3 |
| 20260502192034 | 17 | 360 | 6.4 | 16.1 | 0.00 | 0.00 | 0.00 | 86 | 1013.5 |
| 20260502191543 | 17 | 292 | 6.4 | 16.1 | 0.00 | 0.00 | 0.00 | 85 | 1013.5 |
| 20260502191034 | 17 | 315 | 8.0 | 14.5 | 0.00 | 0.00 | 0.00 | 86 | 1013.7 |
| 20260502190535 | 18 | 254 | 8.0 | 14.5 | 0.00 | 0.00 | 0.00 | 86 | 1013.8 |
| 20260502190101 | 18 | 287 | 8.0 | 14.5 | 0.00 | 0.00 | 0.00 | 86 | 1014.0 |
| 20260502185533 | 17 | 294 | 6.4 | 12.9 | 0.00 | 0.00 | 0.00 | 86 | 1013.8 |
| 20260502185032 | 17 | 272 | 4.8 | 11.3 | 0.00 | 0.00 | 0.00 | 87 | 1013.9 |
| 20260502184558 | 17 | 299 | 6.4 | 11.3 | 0.00 | 0.00 | 0.00 | 86 | 1013.9 |
| 20260502184034 | 17 | 280 | 4.8 | 11.3 | 0.00 | 0.00 | 0.00 | 87 | 1013.9 |
| 20260502183532 | 17 | 272 | 3.2 | 12.9 | 0.00 | 0.00 | 0.00 | 86 | 1013.9 |
| 20260502183051 | 17 | 264 | 6.4 | 12.9 | 0.00 | 0.00 | 0.00 | 86 | 1014.0 |
| 20260502182531 | 17 | 298 | 4.8 | 12.9 | 0.00 | 0.00 | 0.00 | 86 | 1014.0 |
| 20260502182035 | 17 | 263 | 4.8 | 14.5 | 0.00 | 0.00 | 0.00 | 86 | 1014.1 |
| 20260502181552 | 17 | 254 | 4.8 | 14.5 | 0.00 | 0.00 | 0.00 | 86 | 1014.3 |
| 20260502181035 | 17 | 273 | 8.0 | 14.5 | 0.00 | 0.00 | 0.00 | 86 | 1014.2 |
| 20260502180535 | 17 | 266 | 4.8 | 11.3 | 0.00 | 0.00 | 0.00 | 86 | 1014.2 |
| 20260502180112 | 17 | 311 | 3.2 | 8.0 | 0.00 | 0.00 | 0.00 | 86 | 1014.1 |
| 20260502164032 | 16 | 0 | 0.0 | 4.8 | 0.00 | 0.00 | 0.00 | 87 | 1014.6 |
| 20260502163535 | 16 | 352 | 0.0 | 4.8 | 0.00 | 0.00 | 0.00 | 87 | 1014.6 |
| 20260502163048 | 16 | 310 | 0.0 | 4.8 | 0.00 | 0.00 | 0.00 | 88 | 1014.8 |
| 20260502162533 | 16 | 26 | 0.0 | 3.2 | 0.00 | 0.00 | 0.00 | 88 | 1014.7 |
| 20260502162035 | 16 | 0 | 0.0 | 3.2 | 0.00 | 0.00 | 0.00 | 88 | 1014.6 |
| 20260502161545 | 16 | 0 | 0.0 | 4.8 | 0.00 | 0.00 | 0.00 | 88 | 1014.5 |
| 20260502161033 | 16 | 0 | 1.6 | 8.0 | 0.00 | 0.00 | 0.00 | 88 | 1014.5 |
| 20260502160531 | 16 | 294 | 1.6 | 8.0 | 0.00 | 0.00 | 0.00 | 88 | 1014.7 |
| 20260502152030 | 16 | 0 | 0.0 | 3.2 | 0.00 | 0.00 | 0.00 | 89 | 1014.6 |
| 20260502151556 | 16 | 0 | 0.0 | 0.0 | 0.00 | 0.00 | 0.00 | 89 | 1014.6 |
| 20260502151034 | 16 | 0 | 0.0 | 0.0 | 0.00 | 0.00 | 0.00 | 89 | 1014.4 |
| 20260502150534 | 16 | 0 | 0.0 | 0.0 | 0.00 | 0.00 | 0.00 | 89 | 1014.4 |
| 20260502130532 | 16 | 0 | 0.0 | 0.0 | 0.00 | 0.00 | 0.00 | 88 | 1013.7 |
| 20260502123534 | 16 | 0 | 0.0 | 1.6 | 0.00 | 0.00 | 0.00 | 88 | 1013.7 |
| 20260502123047 | 16 | 0 | 0.0 | 3.2 | 0.00 | 0.00 | 0.00 | 88 | 1013.7 |
| 20260502122535 | 16 | 0 | 0.0 | 3.2 | 0.00 | 0.00 | 0.00 | 88 | 1013.6 |
| 20260502122032 | 16 | 0 | 0.0 | 1.6 | 0.00 | 0.00 | 0.00 | 88 | 1013.5 |
| 20260502121600 | 16 | 0 | 0.0 | 3.2 | 0.00 | 0.00 | 0.00 | 88 | 1013.5 |
| 20260502121037 | 16 | 0 | 0.0 | 3.2 | 0.00 | 0.00 | 0.00 | 88 | 1013.6 |
| 20260502120532 | 16 | 0 | 0.0 | 1.6 | 0.00 | 0.00 | 0.00 | 88 | 1013.5 |
| 20260502115534 | 16 | 0 | 0.0 | 1.6 | 0.00 | 0.00 | 0.00 | 88 | 1013.4 |
| 20260502115031 | 16 | 0 | 0.0 | 0.0 | 0.00 | 0.00 | 0.00 | 88 | 1013.4 |
| 20260502114550 | 16 | 0 | 0.0 | 0.0 | 0.00 | 0.00 | 0.00 | 88 | 1013.3 |
| 20260502114035 | 16 | 0 | 0.0 | 0.0 | 0.00 | 0.00 | 0.00 | 88 | 1013.3 |
| 20260502113533 | 16 | 0 | 0.0 | 3.2 | 0.00 | 0.00 | 0.00 | 88 | 1013.3 |
| 20260502113045 | 16 | 0 | 0.0 | 3.2 | 0.00 | 0.00 | 0.00 | 88 | 1013.2 |
| 20260502112531 | 16 | 0 | 0.0 | 1.6 | 0.00 | 0.00 | 0.00 | 88 | 1013.3 |
| 20260502112031 | 16 | 0 | 0.0 | 1.6 | 0.00 | 0.00 | 0.00 | 88 | 1013.2 |
| 20260502111556 | 16 | 0 | 0.0 | 0.0 | 0.00 | 0.00 | 0.00 | 88 | 1013.3 |
| 20260502111035 | 16 | 0 | 0.0 | 0.0 | 0.00 | 0.00 | 0.00 | 88 | 1013.3 |
| 20260502110532 | 16 | 0 | 0.0 | 1.6 | 0.00 | 0.00 | 0.00 | 88 | 1013.4 |
| 20260502110050 | 16 | 0 | 0.0 | 1.6 | 0.00 | 0.00 | 0.00 | 88 | 1013.3 |
| 20260502105538 | 16 | 0 | 0.0 | 8.0 | 0.00 | 0.00 | 0.00 | 88 | 1013.2 |
| 20260502105034 | 16 | 0 | 0.0 | 8.0 | 0.00 | 0.00 | 0.00 | 88 | 1013.2 |
| 20260502104553 | 16 | 212 | 1.6 | 8.0 | 0.00 | 0.00 | 0.00 | 88 | 1013.2 |
| 20260502104037 | 16 | 260 | 0.0 | 3.2 | 0.00 | 0.00 | 0.00 | 88 | 1013.2 |
| 20260502103531 | 16 | 0 | 0.0 | 1.6 | 0.00 | 0.00 | 0.00 | 88 | 1013.2 |
| 20260502103053 | 16 | 0 | 0.0 | 1.6 | 0.00 | 0.00 | 0.00 | 88 | 1013.2 |
| 20260502102537 | 16 | 0 | 0.0 | 1.6 | 0.00 | 0.00 | 0.00 | 88 | 1013.2 |
| 20260502102035 | 16 | 0 | 0.0 | 0.0 | 0.00 | 0.00 | 0.00 | 88 | 1013.2 |
| 20260502101605 | 16 | 0 | 0.0 | 1.6 | 0.00 | 0.00 | 0.00 | 88 | 1013.2 |
| 20260502101035 | 16 | 0 | 0.0 | 1.6 | 0.00 | 0.00 | 0.00 | 88 | 1013.1 |
| 20260502100535 | 16 | 0 | 0.0 | 4.8 | 0.00 | 0.00 | 0.00 | 88 | 1013.1 |
| 20260502100116 | 16 | 0 | 0.0 | 4.8 | 0.00 | 0.00 | 0.00 | 88 | 1013.0 |
| 20260502091034 | 16 | 0 | 0.0 | 3.2 | 0.00 | 0.00 | 0.00 | 87 | 1013.2 |
| 20260502090534 | 16 | 210 | 0.0 | 1.6 | 0.00 | 0.00 | 0.00 | 87 | 1013.1 |
| 20260502071034 | 16 | 277 | 0.0 | 3.2 | 0.00 | 0.00 | 0.00 | 86 | 1013.8 |
| 20260502070535 | 16 | 0 | 0.0 | 3.2 | 0.00 | 0.00 | 0.00 | 86 | 1013.9 |
| 20260502070054 | 16 | 0 | 0.0 | 3.2 | 0.00 | 0.00 | 0.00 | 86 | 1014.0 |
| 20260502065531 | 16 | 0 | 0.0 | 3.2 | 0.00 | 0.00 | 0.00 | 86 | 1013.9 |
| 20260502065033 | 16 | 327 | 0.0 | 3.2 | 0.00 | 0.00 | 0.00 | 86 | 1014.0 |
| 20260502064552 | 16 | 0 | 0.0 | 3.2 | 0.00 | 0.00 | 0.00 | 86 | 1013.9 |
| 20260502064031 | 16 | 352 | 0.0 | 3.2 | 0.00 | 0.00 | 0.00 | 86 | 1013.9 |
| 20260502063530 | 16 | 0 | 0.0 | 1.6 | 0.00 | 0.00 | 0.00 | 86 | 1013.9 |
| 20260502063057 | 16 | 0 | 0.0 | 1.6 | 0.00 | 0.00 | 0.00 | 86 | 1013.8 |
| 20260502062531 | 16 | 304 | 0.0 | 4.8 | 0.00 | 0.00 | 0.00 | 86 | 1013.9 |
| 20260502062032 | 16 | 275 | 0.0 | 4.8 | 0.00 | 0.00 | 0.00 | 86 | 1013.9 |
| 20260502061547 | 16 | 229 | 0.0 | 4.8 | 0.00 | 0.00 | 0.00 | 86 | 1013.9 |
| 20260502061031 | 16 | 0 | 0.0 | 3.2 | 0.00 | 0.00 | 0.00 | 86 | 1013.9 |
| 20260502060531 | 16 | 0 | 0.0 | 4.8 | 0.00 | 0.00 | 0.00 | 86 | 1013.9 |
| 20260502060107 | 16 | 229 | 0.0 | 4.8 | 0.00 | 0.00 | 0.00 | 86 | 1013.9 |
| 20260502055531 | 16 | 229 | 1.6 | 4.8 | 0.00 | 0.00 | 0.00 | 86 | 1014.0 |
| 20260502055031 | 16 | 215 | 0.0 | 4.8 | 0.00 | 0.00 | 0.00 | 86 | 1014.0 |
| 20260502054549 | 16 | 0 | 0.0 | 4.8 | 0.00 | 0.00 | 0.00 | 86 | 1014.0 |
| 20260502054030 | 16 | 252 | 0.0 | 4.8 | 0.00 | 0.00 | 0.00 | 86 | 1013.9 |
| 20260502053531 | 16 | 0 | 1.6 | 4.8 | 0.00 | 0.00 | 0.00 | 86 | 1013.9 |
| 20260502053100 | 16 | 0 | 0.0 | 4.8 | 0.00 | 0.00 | 0.00 | 86 | 1014.0 |
| 20260502052531 | 16 | 0 | 1.6 | 4.8 | 0.00 | 0.00 | 0.00 | 86 | 1014.0 |
| 20260502052034 | 16 | 289 | 1.6 | 3.2 | 0.00 | 0.00 | 0.00 | 86 | 1013.9 |
| 20260502051559 | 16 | 304 | 0.0 | 4.8 | 0.00 | 0.00 | 0.00 | 86 | 1013.9 |
| 20260502051031 | 16 | 0 | 0.0 | 4.8 | 0.00 | 0.00 | 0.00 | 86 | 1013.9 |
| 20260502050531 | 16 | 284 | 1.6 | 3.2 | 0.00 | 0.00 | 0.00 | 86 | 1013.8 |
| 20260502050056 | 16 | 0 | 0.0 | 1.6 | 0.00 | 0.00 | 0.00 | 86 | 1013.9 |
| 20260502045537 | 16 | 0 | 0.0 | 4.8 | 0.00 | 0.00 | 0.00 | 86 | 1013.9 |
| 20260502045032 | 16 | 0 | 1.6 | 4.8 | 0.00 | 0.00 | 0.00 | 85 | 1013.8 |
| 20260502044546 | 16 | 287 | 0.0 | 3.2 | 0.00 | 0.00 | 0.00 | 85 | 1013.9 |
| 20260502044031 | 16 | 0 | 1.6 | 4.8 | 0.00 | 0.00 | 0.00 | 85 | 1013.8 |
| 20260502043531 | 16 | 0 | 1.6 | 4.8 | 0.00 | 0.00 | 0.00 | 85 | 1013.7 |
| 20260502043044 | 16 | 296 | 1.6 | 4.8 | 0.00 | 0.00 | 0.00 | 85 | 1013.8 |
| 20260502042531 | 16 | 305 | 0.0 | 3.2 | 0.00 | 0.00 | 0.00 | 85 | 1013.8 |
| 20260502042032 | 16 | 0 | 0.0 | 1.6 | 0.00 | 0.00 | 0.00 | 84 | 1013.7 |
| 20260502041545 | 16 | 0 | 0.0 | 3.2 | 0.00 | 0.00 | 0.00 | 84 | 1013.7 |
| 20260502041031 | 16 | 0 | 0.0 | 3.2 | 0.00 | 0.00 | 0.00 | 84 | 1013.7 |
| 20260502040534 | 16 | 0 | 0.0 | 3.2 | 0.00 | 0.00 | 0.00 | 84 | 1013.7 |
| 20260502040048 | 16 | 0 | 0.0 | 6.4 | 0.00 | 0.00 | 0.00 | 84 | 1013.6 |
| 20260502035531 | 16 | 245 | 3.2 | 6.4 | 0.00 | 0.00 | 0.00 | 84 | 1013.6 |
| 20260502035031 | 16 | 260 | 0.0 | 4.8 | 0.00 | 0.00 | 0.00 | 84 | 1013.5 |
| 20260502034548 | 16 | 0 | 0.0 | 4.8 | 0.00 | 0.00 | 0.00 | 84 | 1013.5 |
| 20260502034033 | 16 | 0 | 0.0 | 1.6 | 0.00 | 0.00 | 0.00 | 84 | 1013.4 |
| 20260502033531 | 16 | 0 | 0.0 | 4.8 | 0.00 | 0.00 | 0.00 | 84 | 1013.3 |
| 20260502033052 | 16 | 0 | 0.0 | 4.8 | 0.00 | 0.00 | 0.00 | 84 | 1013.3 |
| 20260502032531 | 16 | 19 | 1.6 | 4.8 | 0.00 | 0.00 | 0.00 | 84 | 1013.3 |
| 20260502032032 | 16 | 321 | 1.6 | 4.8 | 0.00 | 0.00 | 0.00 | 84 | 1013.2 |
| 20260502031545 | 16 | 0 | 0.0 | 3.2 | 0.00 | 0.00 | 0.00 | 84 | 1013.2 |
| 20260502031031 | 16 | 0 | 0.0 | 6.4 | 0.00 | 0.00 | 0.00 | 84 | 1013.1 |
| 20260502030534 | 16 | 276 | 1.6 | 6.4 | 0.00 | 0.00 | 0.00 | 84 | 1013.2 |
| 20260502030045 | 17 | 284 | 1.6 | 6.4 | 0.00 | 0.00 | 0.00 | 84 | 1013.2 |